Weather History for Hartsville, SC

Change the Weather History Date:

Friday, September 20, 2013

  Actual Average (KFLO) Record (KFLO)
Temperature  
Mean Temperature 74 °F 73 °F  
Max Temperature 87 °F 83 °F 96 °F (2010)
Min Temperature 62 °F 63 °F 45 °F (1981)
Degree Days  
Heating Degree Days 0 0  
Month to date heating degree days 0  
Since 1 July heating degree days 0  
Cooling Degree Days 10 8  
Month to date cooling degree days 218  
Year to date cooling degree days 1888  
Growing Degree Days 24 (Base 50)    
Moisture  
Dew Point 63 °F    
Average Humidity 69    
Maximum Humidity 100    
Minimum Humidity 43    
Precipitation  
Precipitation 0.00 in 0.12 in 1.28 in (1952)
Month to date precipitation 2.53  
Year to date precipitation 33.01  
Sea Level Pressure  
Sea Level Pressure 30.04 in    
Wind  
Wind Speed 2 mph (South)    
Max Wind Speed 6 mph    
Max Gust Speed -    
Visibility 10 miles    
Events      
T = Trace of Precipitation, MM = Missing Value Source: NWS Daily Summary

Daily Weather History Graph

Daily Weather History Graph

Search for Another Location

Airport:

Trip Planner

Search our weather history database for the weather conditions in past years. The results will help you decide how hot, cold, wet, or windy it might be!

Date:

Astronomy

Sep. 20, 2013 Rise Set
Actual Time 7:07 AM EDT 7:19 PM EDT
Civil Twilight 6:42 AM EDT 7:44 PM EDT
Nautical Twilight 6:12 AM EDT 8:14 PM EDT
Astronomical Twilight 5:43 AM EDT 8:43 PM EDT
Moon 7:58 PM EDT (9/20) 8:15 AM EDT (9/20)
Length of Visible Light 13h 02m
Length of Day
12h 12m
Full, 98% of the Moon is Illuminated
Sep 20
Full
Sep 26
Last Quarter
Oct 4
New
Oct 11
First Quarter
Oct 18
Full

Hourly Weather History & Observations

Time (EDT) Temp. Heat Index Dew Point Humidity Pressure Visibility Wind Dir Wind Speed Gust Speed Precip Events Conditions
12:15 AM 69.8 °F - 60.8 °F 73% 30.10 in 10.0 mi Calm Calm - N/A   Overcast
12:35 AM 69.8 °F - 60.8 °F 73% 30.10 in 10.0 mi Calm Calm - N/A   Overcast
12:55 AM 69.8 °F - 60.8 °F 73% 30.10 in 10.0 mi Calm Calm - N/A   Overcast
1:15 AM 69.8 °F - 60.8 °F 73% 30.10 in 10.0 mi Calm Calm - N/A   Overcast
1:35 AM 69.8 °F - 62.6 °F 78% 30.10 in 10.0 mi Calm Calm - N/A   Overcast
1:55 AM 69.8 °F - 60.8 °F 73% 30.10 in 10.0 mi Calm Calm - N/A   Overcast
2:15 AM 68.0 °F - 60.8 °F 78% 30.11 in 10.0 mi Calm Calm - N/A   Mostly Cloudy
2:35 AM 66.2 °F - 60.8 °F 83% 30.10 in 10.0 mi Calm Calm - N/A   Scattered Clouds
2:55 AM 66.2 °F - 60.8 °F 83% 30.10 in 10.0 mi Calm Calm - N/A   Overcast
3:15 AM 66.2 °F - 60.8 °F 83% 30.10 in 10.0 mi Calm Calm - N/A   Overcast
3:35 AM 68.0 °F - 60.8 °F 78% 30.10 in 10.0 mi Calm Calm - N/A   Overcast
3:55 AM 66.2 °F - 60.8 °F 83% 30.09 in 10.0 mi Calm Calm - N/A   Mostly Cloudy
4:15 AM 64.4 °F - 60.8 °F 88% 30.09 in 10.0 mi Calm Calm - N/A   Scattered Clouds
4:35 AM 64.4 °F - 62.6 °F 94% 30.08 in 10.0 mi Calm Calm - N/A   Clear
4:55 AM 64.4 °F - 62.6 °F 94% 30.09 in 10.0 mi Calm Calm - N/A   Clear
5:15 AM 64.4 °F - 64.4 °F 100% 30.08 in 10.0 mi Calm Calm - N/A   Clear
5:35 AM 62.6 °F - 62.6 °F 100% 30.09 in 10.0 mi Calm Calm - N/A   Clear
5:55 AM 64.4 °F - 64.4 °F 100% 30.09 in 10.0 mi Calm Calm - N/A   Clear
6:15 AM 62.6 °F - 62.6 °F 100% 30.09 in 7.0 mi Calm Calm - N/A   Scattered Clouds
6:35 AM 64.4 °F - - N/A% 30.09 in 7.0 mi Calm Calm - N/A   Clear
6:55 AM 62.6 °F - - N/A% 30.09 in 7.0 mi Calm Calm - N/A   Scattered Clouds
7:15 AM 62.6 °F - - N/A% 30.09 in 7.0 mi Calm Calm - N/A   Scattered Clouds
7:35 AM 64.4 °F - - N/A% 30.10 in 5.0 mi Calm Calm - N/A   Scattered Clouds
7:55 AM 64.4 °F - - N/A% 30.10 in 7.0 mi Calm Calm - N/A   Mostly Cloudy
8:15 AM 64.4 °F - - N/A% 30.10 in 7.0 mi Calm Calm - N/A   Mostly Cloudy
8:35 AM 66.2 °F - - N/A% 30.10 in 10.0 mi WSW 3.5 mph - N/A   Overcast
8:55 AM 68.0 °F - 68.0 °F 100% 30.10 in 10.0 mi WSW 3.5 mph - N/A   Mostly Cloudy
9:15 AM 69.8 °F - 69.8 °F 100% 30.09 in 10.0 mi WSW 4.6 mph - N/A   Mostly Cloudy
9:35 AM 71.6 °F - 69.8 °F 94% 30.10 in 10.0 mi WSW 3.5 mph - N/A   Mostly Cloudy
9:55 AM 73.4 °F - 64.4 °F 73% 30.09 in 10.0 mi WSW 5.8 mph - N/A   Scattered Clouds
10:15 AM 77.0 °F - 62.6 °F 61% 30.09 in 10.0 mi West 5.8 mph - N/A   Scattered Clouds
10:35 AM 77.0 °F - 62.6 °F 61% 30.10 in 10.0 mi WSW 5.8 mph - N/A   Scattered Clouds
10:55 AM 77.0 °F - 62.6 °F 61% 30.09 in 10.0 mi WSW 4.6 mph - N/A   Scattered Clouds
11:15 AM 77.0 °F - 62.6 °F 61% 30.08 in 10.0 mi WSW 5.8 mph - N/A   Scattered Clouds
11:35 AM 78.8 °F - 62.6 °F 57% 30.08 in 10.0 mi SW 4.6 mph - N/A   Clear
11:55 AM 78.8 °F - 62.6 °F 57% 30.07 in 10.0 mi SW 5.8 mph - N/A   Mostly Cloudy
12:15 PM 78.8 °F - 62.6 °F 57% 30.07 in 10.0 mi SW 3.5 mph - N/A   Scattered Clouds
12:35 PM 80.6 °F 81.8 °F 62.6 °F 54% 30.07 in 10.0 mi Calm Calm - N/A   Scattered Clouds
12:55 PM 82.4 °F 83.4 °F 62.6 °F 51% 30.06 in 10.0 mi Calm Calm - N/A   Scattered Clouds
1:15 PM 82.4 °F 83.4 °F 62.6 °F 51% 30.05 in 10.0 mi South 4.6 mph - N/A   Mostly Cloudy
1:35 PM 84.2 °F 85.0 °F 62.6 °F 48% 30.04 in 10.0 mi SSW 4.6 mph - N/A   Mostly Cloudy
1:55 PM 84.2 °F 84.4 °F 60.8 °F 45% 30.03 in 7.0 mi SW 4.6 mph - N/A   Mostly Cloudy
2:15 PM 84.2 °F 84.4 °F 60.8 °F 45% 30.02 in 10.0 mi Calm Calm - N/A   Scattered Clouds
2:35 PM 86.0 °F 86.1 °F 60.8 °F 43% 30.01 in 10.0 mi SSE 4.6 mph - N/A   Scattered Clouds
2:55 PM 86.0 °F 86.1 °F 60.8 °F 43% 30.01 in 10.0 mi WSW 3.5 mph - N/A   Clear
3:15 PM 86.0 °F 86.1 °F 60.8 °F 43% 30.00 in 10.0 mi SSW 4.6 mph - N/A   Scattered Clouds
3:35 PM 84.2 °F 84.4 °F 60.8 °F 45% 29.99 in 10.0 mi South 4.6 mph - N/A   Scattered Clouds
3:55 PM 87.8 °F 88.5 °F 62.6 °F 43% 29.98 in 10.0 mi SSE 3.5 mph - N/A   Mostly Cloudy
4:15 PM 84.2 °F 85.0 °F 62.6 °F 48% 29.98 in 10.0 mi SSW 3.5 mph - N/A   Mostly Cloudy
4:35 PM 82.4 °F 83.4 °F 62.6 °F 51% 29.97 in 10.0 mi South 3.5 mph - N/A   Overcast
4:55 PM 82.4 °F 83.4 °F 62.6 °F 51% 29.97 in 10.0 mi SE 3.5 mph - N/A   Overcast
5:15 PM 82.4 °F 83.4 °F 62.6 °F 51% 29.97 in 10.0 mi SE 4.6 mph - N/A   Overcast
5:35 PM 82.4 °F 83.9 °F 64.4 °F 54% 29.97 in 10.0 mi Calm Calm - N/A   Overcast
5:55 PM 82.4 °F 83.9 °F 64.4 °F 54% 29.97 in 10.0 mi Calm Calm - N/A   Mostly Cloudy
6:15 PM 82.4 °F 83.9 °F 64.4 °F 54% 29.96 in 10.0 mi SSE 3.5 mph - N/A   Scattered Clouds
6:35 PM 80.6 °F 82.3 °F 64.4 °F 58% 29.96 in 10.0 mi SSE 3.5 mph - N/A   Scattered Clouds
6:55 PM 80.6 °F 82.3 °F 64.4 °F 58% 29.96 in 10.0 mi SSE 3.5 mph - N/A   Scattered Clouds
7:15 PM 78.8 °F - 66.2 °F 65% 29.97 in 10.0 mi SSE 3.5 mph - N/A   Clear
7:35 PM 77.0 °F - 66.2 °F 69% 29.97 in 10.0 mi Calm Calm - N/A   Clear
7:55 PM 75.2 °F - 66.2 °F 73% 29.97 in 10.0 mi Calm Calm - N/A   Mostly Cloudy
8:15 PM 77.0 °F - 68.0 °F 74% 29.98 in 10.0 mi Calm Calm - N/A   Overcast
8:35 PM 77.0 °F - 68.0 °F 74% 29.98 in 10.0 mi SE 4.6 mph - N/A   Overcast
8:55 PM 77.0 °F - 68.0 °F 74% 29.98 in 10.0 mi SE 4.6 mph - N/A   Mostly Cloudy
9:15 PM 75.2 °F - 66.2 °F 73% 29.99 in 10.0 mi SE 4.6 mph - N/A   Scattered Clouds
9:35 PM 73.4 °F - 66.2 °F 78% 29.99 in 10.0 mi SE 5.8 mph - N/A   Scattered Clouds
9:55 PM 73.4 °F - 64.4 °F 73% 29.98 in 10.0 mi SE 4.6 mph - N/A   Clear
10:15 PM 73.4 °F - 64.4 °F 73% 29.98 in 10.0 mi SSE 4.6 mph - N/A   Clear
10:35 PM 71.6 °F - 64.4 °F 78% 29.98 in 10.0 mi SSE 4.6 mph - N/A   Clear
10:55 PM 71.6 °F - 64.4 °F 78% 29.98 in 10.0 mi SE 4.6 mph - N/A   Clear
11:15 PM 71.6 °F - 64.4 °F 78% 29.98 in 10.0 mi SSE 5.8 mph - N/A   Clear
11:35 PM 69.8 °F - 64.4 °F 83% 29.98 in 10.0 mi South 4.6 mph - N/A   Clear
11:55 PM 69.8 °F - 64.4 °F 83% 29.97 in 10.0 mi South 4.6 mph - N/A   Clear